Home   Weather   Brisbane   Past weeks
Flag for Australia

Past Weather in Brisbane, Queensland, Australia — Yesterday and Last 2 Weeks

Now
79 °F

Sunny.


Feels Like: 81 °F
Forecast: 91 / 71 °F
Wind: 8 mph from Southwest

Location: Brisbane Airport M. O

Current Time: Mar 20, 2019 at 9:18:42 am

Latest Report: Mar 20, 2019 at 8:30 am


Visibility: 10 mi

Pressure: 29.89 "Hg

Humidity: 70%

Dew Point: 68 °F

Location of BrisbaneLocation

Past Weather in Brisbane — Graph

°F

Brisbane Temperature Yesterday

Maximum temperature yesterday: 86 °F (at 11:30 am)
Minimum temperature yesterday: 66 °F (at 4:00 am)
Average temperature yesterday: 77 °F

High & Low Weather Summary for the Past Weeks

 TemperatureHumidityPressure
High90 °F (Mar 12, 10:59 am)100% (Mar 6, 4:30 am)30.15 "Hg (Mar 6, 4:30 am)
Low66 °F (Mar 18, 3:00 pm)36% (Mar 13, 9:30 am)29.65 "Hg (Mar 12, 2:30 pm)
Average77 °F81%29.92 "Hg
* Reported Mar 5 8:00 am — Mar 20 8:00 am, Brisbane. Weather by CustomWeather, © 2019

Note: Actual official high and low records may vary slightly from our data, if they occured in-between our weather recording intervals... More about our weather records

Advertising

Brisbane Weather History for the Previous 24 Hours

Scroll right to see more
 ConditionsComfort  
Time TempWeatherWind HumidityBarometerVisibility
8:00 am
Wed, Mar 20
77 °FSunny.8 mph74%29.89 "Hg10 mi
7:30 am75 °FSunny.8 mph78%29.86 "Hg10 mi
7:00 am73 °FSunny.6 mph83%29.86 "Hg10 mi
6:30 am72 °FSunny.6 mph88%29.86 "Hg10 mi
6:00 am70 °FSunny.6 mph94%29.83 "Hg10 mi
5:30 am70 °FClear.5 mph88%29.83 "Hg10 mi
5:00 am70 °FClear.No wind88%29.83 "Hg10 mi
4:30 am70 °FClear.No wind88%29.83 "Hg10 mi
4:00 am70 °FClear.5 mph94%29.83 "Hg10 mi
3:30 am70 °FClear.No wind88%29.83 "Hg10 mi
3:00 am72 °FClear.No wind88%29.80 "Hg10 mi
2:30 am72 °FClear.5 mph83%29.80 "Hg10 mi
2:00 am72 °FClear.6 mph83%29.83 "Hg10 mi
1:30 am73 °FClear.8 mph83%29.83 "Hg10 mi
1:00 am75 °FClear.8 mph83%29.83 "Hg10 mi
12:30 am75 °FClear.9 mph83%29.83 "Hg10 mi
12:00 am75 °FClear.10 mph83%29.83 "Hg10 mi
11:30 pm
Tue, Mar 19
77 °FClear.10 mph79%29.83 "Hg10 mi
11:00 pm77 °FClear.13 mph74%29.86 "Hg10 mi
10:30 pm77 °FClear.13 mph74%29.86 "Hg10 mi
10:00 pm77 °FClear.12 mph74%29.86 "Hg10 mi
9:30 pm77 °FClear.12 mph74%29.86 "Hg10 mi
9:00 pm79 °FClear.12 mph74%29.86 "Hg10 mi
8:30 pm77 °FPassing clouds.13 mph79%29.86 "HgN/A
8:00 pm79 °FPassing clouds.13 mph79%29.86 "HgN/A
7:30 pm77 °FPassing clouds.13 mph79%29.86 "HgN/A
7:00 pm79 °FClear.12 mph74%29.83 "Hg10 mi
6:30 pm79 °FClear.14 mph79%29.83 "Hg10 mi
6:00 pm79 °FClear.14 mph79%29.80 "Hg10 mi
5:30 pm79 °FSunny.15 mph79%29.80 "Hg10 mi
5:00 pm81 °FSunny.15 mph74%29.80 "Hg10 mi
4:30 pm82 °FSunny.15 mph70%29.77 "Hg10 mi
4:00 pm84 °FSunny.15 mph66%29.77 "Hg10 mi
3:30 pm84 °FSunny.15 mph62%29.77 "Hg10 mi
3:00 pm86 °FSunny.13 mph59%29.77 "Hg10 mi
2:30 pm86 °FSunny.13 mph55%29.80 "Hg10 mi
2:00 pm84 °FSunny.12 mph62%29.80 "Hg10 mi
1:30 pm86 °FSunny.10 mph59%29.80 "Hg10 mi
1:00 pm84 °FSunny.10 mph62%29.83 "HgN/A
12:30 pm86 °FSunny.10 mph59%29.83 "Hg10 mi
12:00 pm84 °FPassing clouds.8 mph58%29.83 "HgN/A
11:30 am86 °FPassing clouds.10 mph43%29.86 "HgN/A
10:30 am84 °FPassing clouds.8 mph51%29.89 "HgN/A
10:00 am82 °FSunny.7 mph58%29.89 "Hg10 mi
9:30 am81 °FSunny.6 mph66%29.89 "Hg10 mi
9:00 am79 °FSunny.6 mph70%29.89 "Hg10 mi
Weather by CustomWeather, © 2019

See weather overview